Probability
8 8 7 4 2 1 0 0 0 0 0 0 0 0 0 0 0 0 0 0 0 0 0 0 0 0 0 0 1 2 1 2 2 2 3 3 4 3 3 2 1 2 3 4 4 4 3 1 0
7 8 7 4 1 0 0 0 0 0 0 0 0 0 0 0 0 0 0 0 0 0 0 0 0 0 0 0 1 2 2 2 3 3 3 3 3 4 3 2 2 3 5 5 5 5 3 1 1
9 8 6 3 1 0 0 0 0 0 0 0 0 0 0 0 0 0 0 0 0 0 0 0 0 0 0 0 1 2 3 3 3 4 5 4 4 5 5 3 3 4 5 5 5 4 3 3 2
10 9 5 1 0 0 0 0 0 0 0 0 0 0 0 0 0 0 0 0 0 0 0 0 0 0 0 0 1 2 3 3 3 4 5 5 4 5 6 5 5 4 4 5 4 4 4 4 4
8 6 3 0 0 0 0 0 0 0 0 0 0 0 0 0 0 0 0 0 0 0 0 0 0 0 0 0 0 1 2 2 2 2 3 4 5 6 8 7 6 4 4 5 5 4 4 4 4
5 2 0 0 0 0 0 0 0 0 0 0 0 0 0 0 0 0 0 0 0 0 0 1 1 0 0 0 0 0 1 1 2 1 2 4 4 6 8 7 5 5 5 5 4 4 3 3 4
2 1 0 0 0 0 0 0 0 0 0 0 0 0 0 0 0 0 0 0 0 0 0 1 2 1 1 1 0 1 1 2 3 2 3 3 4 4 5 5 5 5 5 4 4 3 3 3 3
2 1 0 0 0 0 0 0 0 0 0 0 0 0 0 0 0 0 0 0 0 0 0 1 2 2 2 2 1 1 3 4 4 3 3 3 3 4 4 5 5 5 5 4 3 2 2 3 3
2 1 0 0 0 0 0 0 0 0 0 0 0 0 0 0 0 0 0 0 0 0 0 0 1 2 2 2 1 2 3 4 3 3 3 4 4 5 5 6 6 6 5 4 2 1 1 2 3
2 1 0 0 0 0 0 0 0 0 0 0 0 0 0 0 0 0 0 0 0 0 0 0 0 1 1 1 1 2 3 3 2 2 2 4 5 5 6 6 7 6 4 3 2 1 0 1 2
1 0 0 0 0 0 0 0 0 0 0 0 0 0 0 0 0 0 0 0 0 0 0 0 0 1 2 2 2 3 3 3 3 2 2 3 4 4 5 7 7 5 4 3 2 1 0 0 1
0 0 0 0 0 0 0 0 0 0 0 0 0 0 0 0 0 0 0 0 0 0 0 0 0 1 3 4 4 3 2 2 2 2 2 2 2 2 3 5 6 5 4 4 2 1 0 0 0
0 0 0 0 0 0 0 0 0 0 0 0 0 0 0 0 0 0 0 0 0 0 0 0 1 2 5 6 6 4 3 1 1 1 1 1 0 0 1 3 4 4 4 3 2 1 0 0 0
0 0 0 0 0 0 0 0 0 0 0 0 0 0 0 0 0 0 0 0 0 0 0 0 1 3 6 8 8 6 3 1 0 0 0 0 0 0 0 1 3 3 3 3 2 1 0 0 0
0 0 0 0 0 0 0 0 0 0 0 0 0 0 0 0 0 0 0 0 0 0 0 0 1 2 5 6 6 5 3 1 1 1 1 0 0 0 0 1 2 2 2 1 1 0 0 0 0
0 0 0 0 0 0 0 0 0 0 0 0 0 0 0 0 1 1 1 0 0 0 0 0 0 1 3 4 4 3 2 1 1 2 2 1 0 0 0 0 1 1 1 0 0 0 0 0 0
0 0 0 0 0 0 0 0 0 0 0 0 0 0 0 0 2 3 2 1 1 1 0 0 0 1 3 3 3 3 3 2 1 1 1 1 0 0 0 0 0 0 0 0 0 0 0 0 0
0 0 0 0 0 0 0 0 0 0 0 0 0 0 0 1 3 4 3 3 3 3 2 1 1 2 3 3 3 3 3 2 1 0 0 0 0 0 0 0 0 0 0 0 0 0 0 0 0
0 0 0 0 0 0 0 0 0 0 0 0 0 0 0 1 3 3 3 4 5 5 5 4 3 4 4 4 3 3 3 2 1 0 0 0 0 0 0 0 0 0 0 1 1 1 0 0 0
0 0 0 0 0 0 0 0 0 0 0 0 0 0 0 0 2 3 4 5 6 7 7 7 7 7 6 5 4 3 3 2 0 0 0 0 0 0 0 0 0 0 0 1 2 2 1 0 0
0 0 0 0 0 0 0 0 0 0 0 0 0 0 0 0 2 4 5 6 7 8 9 10 11 11 10 7 4 3 3 2 1 0 0 0 0 0 0 0 0 0 0 1 2 3 3 3 2
0 0 0 0 0 0 0 0 0 0 0 0 0 0 0 0 1 2 4 6 8 10 11 13 15 15 14 11 7 5 3 3 2 1 0 0 0 0 0 0 1 1 1 1 2 4 6 7 8
0 0 0 0 0 0 0 0 0 0 0 0 0 0 0 0 0 1 2 4 7 11 13 15 17 18 18 16 13 9 6 3 3 2 0 0 0 1 1 1 2 2 2 2 3 6 9 11 13
0 0 0 0 0 0 0 0 0 0 0 0 0 0 1 1 0 1 2 3 7 10 12 14 18 20 21 20 17 13 9 6 4 2 1 0 1 3 4 4 4 5 4 4 6 8 10 12 13
0 0 0 0 1 0 0 0 0 0 0 0 0 1 2 2 1 2 4 5 7 9 11 14 19 21 22 21 18 15 13 10 7 4 2 1 2 5 9 9 9 8 7 7 8 9 9 10 11
0 0 0 0 0 0 0 1 0 0 0 0 0 1 2 2 1 3 6 8 9 10 12 16 20 22 23 22 21 19 17 14 10 8 6 5 6 9 12 14 13 11 10 9 9 9 9 9 10
0 0 0 0 0 0 0 0 0 0 0 0 1 1 3 3 3 5 8 10 11 12 14 19 22 24 25 25 25 24 22 19 16 13 12 13 14 14 17 17 14 11 11 11 9 8 8 10 11
0 0 0 0 0 0 0 0 0 1 1 1 1 2 4 6 8 10 13 15 16 15 16 19 23 25 27 28 29 29 28 28 25 21 19 20 21 21 22 21 16 13 12 12 11 9 9 11 12
0 0 0 0 0 0 0 0 1 2 2 3 3 5 7 10 13 15 18 22 23 20 19 20 21 23 26 28 31 33 34 34 32 28 25 25 26 25 25 24 21 17 14 13 12 10 9 10 11
0 0 0 0 0 0 0 1 1 2 3 6 6 7 9 12 15 18 20 25 28 25 23 22 20 20 24 28 32 35 37 37 35 32 29 28 29 28 27 26 24 20 16 15 13 9 8 10 10
Wind_Speed
13 10 6 6 4 6 12 10 9 8 8 8 8 6 8 9 8 8 6 5 4 4 5 6 7 7 8 8 9 9 10 11 12 12 13 13 14 15 15 16 16 17 18 18 18 18 17 17 17
9 6 6 4 4 10 12 10 11 10 9 7 7 7 9 9 9 7 6 5 3 5 6 8 8 7 8 8 9 10 11 11 12 12 12 13 13 14 15 16 16 16 17 17 17 17 17 17 16
7 7 5 3 10 11 12 10 10 9 7 5 6 7 7 7 7 5 6 5 4 6 6 10 7 8 9 9 10 10 11 11 11 12 12 13 13 14 15 15 15 16 16 17 17 16 16 16 16
6 6 2 6 14 13 11 9 8 8 8 6 7 9 8 7 5 7 7 5 6 6 7 11 8 8 9 9 9 10 10 11 11 11 12 13 13 14 15 15 14 15 16 16 16 15 15 15 15
7 4 5 10 13 11 10 8 6 7 7 7 7 10 10 7 7 8 7 6 6 7 7 10 8 8 9 9 10 10 10 11 11 11 12 12 13 14 14 14 14 15 15 15 15 14 14 14 14
5 1 6 10 12 9 8 7 7 9 10 8 9 11 9 7 8 8 7 6 6 7 7 9 9 8 8 8 9 10 10 11 11 11 12 13 13 13 13 13 13 14 14 14 14 13 13 12 12
4 5 9 10 10 9 8 6 7 8 9 8 6 9 9 8 8 7 7 6 6 6 6 6 7 8 8 8 9 9 10 10 11 12 12 13 13 13 12 12 13 13 13 13 12 12 12 11 10
4 1 8 9 9 10 8 7 7 7 9 7 4 6 10 10 8 7 7 6 6 5 6 5 6 6 6 8 10 9 9 10 11 11 11 11 12 12 12 12 12 12 12 11 11 11 10 10 9
5 2 8 8 8 10 9 9 8 6 9 7 6 8 12 12 9 8 7 6 6 5 4 4 6 6 5 7 8 7 8 8 8 9 9 7 7 9 9 12 11 11 10 10 10 9 9 8 10
2 6 11 8 8 9 8 7 8 7 8 9 10 11 12 11 9 8 7 7 6 5 5 5 5 5 4 5 5 4 5 5 4 6 6 5 5 5 7 11 10 9 9 9 9 8 9 7 7
3 8 8 8 7 8 9 8 6 7 7 9 12 13 12 10 8 7 6 6 6 5 4 5 5 4 3 3 3 3 3 3 5 5 5 5 4 4 5 5 7 7 7 6 8 7 3 3 3
5 7 6 7 7 7 7 7 6 5 8 9 11 13 12 10 8 7 6 6 6 4 5 4 5 4 3 3 3 2 3 2 3 4 3 4 3 3 3 2 3 3 3 3 2 2 3 2 2
6 6 6 7 7 7 7 7 6 7 9 10 11 11 11 9 8 6 5 5 5 5 5 5 4 4 3 2 1 3 2 2 3 3 3 3 3 3 3 2 2 2 3 3 2 2 2 2 2
6 7 8 8 8 7 7 7 6 8 10 11 11 10 10 8 8 7 6 5 5 5 5 5 4 5 3 3 2 2 2 2 2 2 3 2 2 2 2 2 1 1 1 2 1 2 2 1 1
7 8 8 7 6 6 7 7 7 10 11 11 11 10 9 8 7 6 6 6 6 5 5 5 5 5 4 3 3 2 2 2 1 2 2 1 1 2 1 1 1 1 1 2 1 1 2 2 2
7 6 6 7 5 5 7 7 10 11 12 11 10 9 9 8 8 7 6 6 6 5 5 5 4 5 5 3 2 1 1 1 1 1 1 1 0 1 1 1 1 1 1 1 1 2 1 1 2
7 3 3 7 6 5 6 5 11 12 11 10 10 10 9 9 9 8 7 7 7 6 6 6 4 4 4 4 3 2 1 1 1 1 1 1 1 1 2 0 1 1 1 1 2 1 1 1 1
3 3 3 3 6 7 6 3 9 12 11 10 10 10 10 9 9 9 8 8 7 7 7 6 6 5 5 4 3 2 2 2 1 1 1 1 1 1 1 1 1 1 1 1 1 0 1 1 1
4 4 2 2 3 6 6 5 8 11 11 11 11 10 10 10 9 9 9 9 9 9 8 8 7 7 5 4 4 3 3 2 2 2 1 1 1 1 1 1 1 2 1 1 2 1 2 2 1
7 6 4 4 4 5 5 6 6 10 12 11 11 11 11 10 10 10 10 10 10 10 10 9 9 8 7 4 3 2 1 2 1 1 1 1 1 1 2 1 1 1 1 1 1 1 1 1 2
9 7 5 3 5 6 6 7 8 9 11 11 11 11 11 11 11 11 11 11 11 11 11 9 9 8 8 6 5 4 3 3 3 3 2 2 1 1 0 1 1 1 2 1 1 2 3 2 2
8 5 5 6 8 5 6 4 7 9 11 12 12 12 12 12 11 12 12 12 12 11 11 10 9 9 8 8 6 6 4 3 3 2 2 2 2 2 2 1 1 2 2 1 3 2 3 3 3
5 3 6 7 8 7 6 8 4 8 10 11 12 12 12 12 12 12 12 12 12 12 11 10 10 9 9 8 7 7 5 4 3 3 3 3 3 3 2 2 1 2 2 1 2 1 3 3 3
6 6 5 7 8 9 5 8 3 6 8 8 10 10 11 11 11 11 11 11 12 11 11 11 11 10 9 9 8 8 6 5 4 4 3 4 3 3 3 3 2 2 1 1 2 2 3 3 3
11 10 8 9 8 6 3 8 3 2 4 6 8 9 10 10 10 11 12 13 13 13 12 11 11 10 10 10 9 9 8 7 6 6 5 4 3 3 3 3 2 2 1 1 1 2 2 2 3
13 14 10 8 7 6 7 7 2 2 3 5 6 8 9 10 9 10 12 12 13 13 13 12 11 11 10 10 9 8 8 7 6 6 4 4 3 2 3 3 3 2 2 2 1 2 2 2 3
12 13 11 10 10 9 6 5 5 5 6 7 8 8 9 9 9 10 11 12 12 13 13 12 12 11 10 10 9 8 8 7 5 5 5 4 3 3 4 4 4 3 3 2 2 1 2 2 3
10 10 8 11 10 10 8 9 5 6 6 8 8 8 8 8 9 9 10 11 11 12 12 12 11 10 10 10 9 8 8 8 6 6 5 4 4 3 4 4 4 4 3 3 3 2 1 2 2
10 12 11 10 10 11 9 6 2 4 6 7 8 8 8 8 9 9 9 9 10 11 11 11 11 10 9 9 9 8 8 8 8 7 6 5 5 5 5 5 4 4 4 3 3 3 2 2 2
12 13 13 11 10 10 11 4 5 2 4 5 6 6 6 7 8 9 9 9 9 10 10 10 10 9 9 9 8 8 8 7 7 7 6 6 5 5 5 5 5 5 4 4 4 3 3 2 2
Wind_Direction
172 182 209 233 218 75 64 64 67 75 68 57 57 55 57 44 39 73 85 88 84 81 78 85 56 52 55 58 62 65 69 79 88 93 95 93 96 99 103 103 104 105 106 108 108 109 110 110 110
174 189 229 243 42 73 68 65 69 67 82 87 75 73 74 67 61 89 105 99 95 78 79 75 64 59 60 61 65 70 72 81 89 93 96 96 96 99 102 104 105 106 107 109 108 108 110 110 110
186 229 263 51 54 59 71 73 80 85 83 78 81 65 57 71 77 93 102 117 104 82 82 82 66 63 65 65 66 71 74 81 91 95 97 98 98 100 102 103 104 106 108 109 108 109 111 111 110
217 222 224 66 68 63 71 85 95 97 87 76 91 88 78 69 78 102 116 121 108 102 92 86 72 66 67 68 69 71 73 82 92 98 99 100 100 101 103 102 103 105 107 107 108 109 111 112 112
242 257 85 77 74 75 78 83 87 84 85 88 93 97 90 81 98 112 121 123 109 96 90 89 80 70 68 67 68 72 75 84 89 97 100 102 101 100 103 102 103 105 106 106 107 109 111 113 115
244 278 62 75 82 86 89 90 94 89 95 97 104 104 93 107 116 118 119 117 104 96 93 95 99 80 72 69 70 75 77 83 87 98 103 104 102 101 103 105 106 107 109 109 109 110 111 112 115
312 39 64 77 92 93 90 95 93 98 100 98 108 104 112 121 117 122 120 114 105 98 95 97 106 106 99 81 83 81 80 82 87 97 102 104 104 104 107 107 108 110 111 111 112 112 112 115 117
301 54 78 79 86 90 107 105 97 99 96 105 113 110 125 131 133 128 123 122 113 104 101 102 95 93 104 101 93 87 83 84 89 95 104 113 119 118 121 118 110 112 113 114 114 114 116 118 123
256 64 69 70 80 100 122 119 111 103 111 105 88 91 118 134 139 137 133 129 118 108 100 96 96 93 88 91 100 108 104 94 108 106 118 135 120 117 125 102 112 114 115 116 117 120 127 136 139
262 61 67 64 74 107 127 123 125 132 124 119 115 112 126 142 149 148 140 135 129 125 119 105 91 88 87 86 98 96 102 96 86 85 103 107 100 99 105 117 120 120 123 129 127 139 163 188 148
61 66 83 89 89 110 126 124 131 135 125 131 136 139 146 151 155 151 140 134 127 134 125 116 104 98 93 90 97 92 90 97 100 94 102 98 108 117 119 131 138 137 148 142 145 171 158 131 111
90 84 90 100 110 122 119 120 122 106 97 124 138 145 152 158 158 155 148 143 135 135 127 116 111 104 75 63 93 112 109 102 92 100 94 106 102 101 102 114 113 132 129 128 145 131 114 107 129
107 102 103 115 124 117 121 116 112 111 113 129 139 150 158 160 157 155 146 146 143 146 138 125 124 122 121 102 66 97 91 94 97 92 94 90 111 108 109 104 108 122 124 145 146 124 119 154 170
104 114 118 127 127 135 133 125 134 126 137 143 152 159 165 164 163 159 162 166 162 160 150 144 153 142 140 137 127 105 121 113 96 104 102 108 101 99 114 134 121 126 133 97 128 138 158 172 157
140 135 134 142 149 148 159 140 134 141 153 156 161 165 170 173 174 177 176 178 175 172 165 163 164 155 159 157 164 152 145 138 125 121 128 142 132 120 164 130 163 117 119 139 163 170 175 177 178
176 179 152 149 174 169 223 118 139 156 166 166 169 172 180 186 191 189 183 184 184 179 171 178 178 157 166 173 188 162 139 127 151 158 138 141 129 196 228 187 150 131 175 171 172 203 185 171 188
195 190 132 148 183 184 227 119 142 168 176 176 179 181 187 189 198 195 192 187 186 184 177 178 186 174 175 169 173 176 148 153 185 171 154 138 191 209 232 240 70 223 214 218 237 139 214 193 193
197 195 169 161 170 204 220 162 155 177 189 188 187 189 193 197 198 195 196 191 184 180 180 183 187 186 186 181 178 184 175 179 175 182 128 167 183 193 252 198 152 238 216 231 237 237 216 232 222
253 250 213 149 158 211 222 214 180 182 197 198 195 195 199 201 194 192 194 194 188 182 183 188 192 184 192 193 196 188 182 188 174 184 156 185 212 182 233 281 157 243 231 270 262 235 184 200 180
235 237 214 169 169 226 228 232 201 191 203 207 203 200 202 199 193 192 195 194 194 188 188 189 193 191 194 185 195 196 207 193 172 174 144 203 205 220 202 210 234 214 231 219 246 230 266 228 210
232 243 240 206 178 210 237 217 200 192 206 209 212 210 205 204 198 194 196 197 195 192 191 191 191 190 195 190 191 183 183 202 182 181 174 187 199 193 277 194 279 282 263 206 231 233 242 255 237
227 233 242 218 223 209 237 255 178 189 199 207 210 210 208 204 202 197 195 196 195 193 190 190 189 191 191 194 201 199 202 202 184 192 159 172 191 197 192 211 234 271 281 249 243 209 249 254 253
233 203 218 226 241 251 218 264 170 180 202 205 206 208 209 204 202 200 198 193 194 192 188 186 187 190 191 195 197 204 208 201 185 182 165 198 184 199 200 204 216 233 260 274 279 264 261 254 260
174 172 192 223 240 244 238 260 231 183 206 203 199 201 205 202 200 200 197 190 191 189 188 185 185 190 191 195 198 205 208 207 200 198 186 197 184 188 188 200 208 228 253 245 256 259 244 270 277
204 209 210 216 223 234 205 250 260 187 196 209 201 194 195 195 195 195 193 190 189 189 189 186 184 189 192 196 200 201 204 204 206 213 199 212 199 189 182 201 207 219 216 236 251 242 276 271 274
214 227 235 241 240 216 197 242 241 191 204 210 204 192 188 188 189 191 189 188 187 188 188 188 187 190 192 196 200 202 205 209 206 208 222 210 217 204 177 192 194 201 213 222 220 251 249 261 268
212 228 244 250 253 257 225 224 228 209 208 202 197 192 187 187 185 185 184 185 184 185 186 188 187 190 193 195 195 200 204 213 210 199 213 216 210 202 189 195 195 196 204 221 228 246 255 253 255
246 229 226 242 245 249 235 230 229 201 204 197 195 194 189 187 182 179 179 180 179 180 182 186 187 191 193 193 197 193 195 199 204 208 204 210 210 211 200 201 203 204 205 210 229 225 218 241 244
202 216 228 239 248 253 252 233 197 204 203 199 193 192 187 184 178 173 175 175 173 175 176 181 186 189 193 196 196 197 194 195 198 202 204 203 207 205 207 206 207 208 208 208 217 234 216 238 246
224 224 218 229 232 244 263 247 111 162 190 194 190 181 174 176 174 170 171 171 172 175 177 180 184 188 190 190 190 194 196 196 200 199 201 201 203 205 205 207 210 212 206 206 214 223 216 225 234